Location: Newark
(45.9456°N, 15.4064°E)
Time: 04:59:13
(UTC+00:00)

A-11 Canister half - Visible Passes

Search period start: 28 January 2020 00:00
Search period end: 07 February 2020 00:00
Orbit: 1517 x 1683 km, 47.2° (Epoch: 27 January)

Date Brightness Start Highest point End Pass type
(mag) Time Alt. Az. Time Alt. Az. Time Alt. Az.
28 Jan 9.8 01:59:56 41° ESE 01:59:56 41° ESE 02:05:19 10° ESE visible
28 Jan 9.1 03:58:08 43° WSW 04:00:29 52° SW 04:09:24 10° SE visible
29 Jan 10.2 01:38:28 29° E 01:38:28 29° E 01:42:23 10° ESE visible
29 Jan 9.0 03:36:41 52° SW 03:37:39 54° SW 03:46:36 10° SE visible
29 Jan 10.3 05:35:19 10° W 05:40:54 18° SW 05:46:32 10° SSW visible
30 Jan 10.6 01:17:04 21° E 01:17:04 21° E 01:19:28 10° E visible
30 Jan 9.0 03:15:17 56° SSW 03:15:17 56° SSW 03:23:46 10° SE visible
30 Jan 10.2 05:13:30 13° W 05:18:07 19° SW 05:24:07 10° S visible
31 Jan 11.0 00:55:42 13° E 00:55:42 13° E 00:56:33 10° E visible
31 Jan 9.3 02:53:56 50° S 02:53:56 50° S 03:00:58 10° SE visible
31 Jan 10.1 04:52:10 17° WSW 04:55:19 21° SW 05:01:39 10° S visible
31 Jan 10.6 18:08:18 10° SE 18:09:17 11° SE 18:09:17 11° SE visible
31 Jan 10.7 20:05:55 10° SSW 20:07:32 16° SSW 20:07:32 16° SSW visible
01 Feb 9.7 02:32:39 39° SSE 02:32:39 39° SSE 02:38:08 10° SE visible
01 Feb 9.9 04:30:52 21° WSW 04:32:32 22° SW 04:39:10 10° S visible
01 Feb 10.6 17:46:30 10° SE 17:48:17 11° SE 17:48:17 11° SE visible
01 Feb 10.3 19:43:09 10° SSW 19:46:31 23° SSW 19:46:31 23° SSW visible
02 Feb 10.1 02:11:25 28° SE 02:11:25 28° SE 02:15:18 10° SE visible
02 Feb 9.9 04:09:39 24° SW 04:09:44 24° SW 04:16:38 10° S visible
02 Feb 10.0 19:20:23 10° SSW 19:25:29 30° S 19:25:29 30° S visible
03 Feb 10.6 01:50:15 19° SE 01:50:15 19° SE 01:52:27 10° SE visible
03 Feb 10.0 03:48:29 24° SW 03:48:29 24° SW 03:54:04 10° S visible
03 Feb 9.7 18:57:38 10° SSW 19:04:27 35° SSE 19:04:27 35° SSE visible
03 Feb 10.8 21:00:51 10° WSW 21:02:42 18° WSW 21:02:42 18° WSW visible
04 Feb 11.0 01:29:07 12° SE 01:29:07 12° SE 01:29:36 10° SE visible
04 Feb 10.1 03:27:22 22° SSW 03:27:22 22° SSW 03:31:29 10° S visible
04 Feb 9.5 18:34:54 10° SSW 18:43:22 36° SE 18:43:22 36° SE visible
04 Feb 10.3 20:37:56 10° WSW 20:41:36 27° WSW 20:41:36 27° WSW visible
05 Feb 10.4 03:06:18 18° S 03:06:18 18° S 03:08:53 10° S visible
05 Feb 9.5 18:12:12 10° SSW 18:20:36 34° SE 18:22:14 32° ESE visible
05 Feb 9.8 20:15:01 10° WSW 20:20:28 39° SW 20:20:28 39° SW visible
06 Feb 10.7 02:45:15 13° S 02:45:15 13° S 02:46:14 10° SSE visible
06 Feb 9.7 17:49:30 10° SSW 17:57:46 32° SE 18:01:03 26° ESE visible
06 Feb 9.3 19:52:06 10° WSW 19:59:17 54° SW 19:59:17 54° SW visible
06 Feb 11.1 21:57:11 10° W 21:57:31 11° W 21:57:31 11° W visible
